GFSSW_500_spd_168.txt.gz
Wind_Speed
9 9 10 11 13 14 16 17 17 18 21 23 21 18 15 14 12 12 13 15 12 10 18 18 15 15 14 14 16 17 17 18 18 19 17 16 16 17 18 17 14 13 14 9 7
12 11 11 12 14 15 16 18 18 18 18 22 24 21 18 16 15 15 15 17 13 14 21 19 14 16 16 15 18 21 15 20 17 17 16 14 13 14 17 18 17 15 13 10 10
15 14 13 14 15 16 17 19 19 19 19 19 23 24 21 19 17 16 16 16 16 16 17 15 13 15 18 16 23 26 29 24 18 15 15 14 13 13 16 18 19 18 14 12 10
19 18 17 16 16 17 18 19 20 21 20 20 21 24 24 23 21 18 17 15 19 15 16 13 14 20 19 25 27 30 26 26 21 16 16 17 15 15 16 20 20 20 18 18 18
23 22 20 19 18 19 19 19 20 21 22 22 23 23 27 24 21 20 20 20 19 15 15 15 12 21 22 26 25 27 25 26 24 22 17 20 19 17 17 19 19 19 20 21 22
27 25 24 23 22 21 20 21 21 21 22 23 23 24 25 26 24 24 23 24 24 18 16 15 14 23 23 25 28 27 24 23 24 27 22 23 22 19 18 19 18 17 19 20 22
26 29 28 26 25 23 23 23 23 22 22 24 25 24 25 28 27 26 25 23 22 21 18 15 16 22 24 26 28 25 23 22 23 24 24 24 23 20 18 18 20 18 19 21 22
32 28 32 31 28 26 25 25 25 24 24 24 26 26 26 31 29 28 27 24 22 20 21 14 15 25 26 25 28 22 21 17 20 21 22 23 20 18 17 17 17 18 17 18 19
21 33 31 33 33 30 28 27 26 26 26 26 26 27 30 30 29 32 28 28 26 23 20 18 15 23 25 26 26 22 8 16 17 18 20 23 23 22 17 15 14 15 16 16 17
27 25 33 34 34 35 32 30 29 28 28 28 28 30 30 29 28 30 30 28 27 24 21 20 19 22 26 22 9 12 15 16 15 13 16 20 23 22 20 16 14 13 12 13 14
33 31 29 30 37 36 37 35 32 30 30 32 31 33 32 29 28 32 30 28 29 29 24 20 21 22 32 24 23 18 17 16 15 14 13 16 18 19 18 16 14 14 12 12 12
39 37 35 32 31 40 38 39 37 34 33 34 35 35 35 32 30 33 33 32 30 27 27 24 23 29 34 26 26 24 21 19 17 15 11 10 13 12 15 15 13 13 14 12 12
45 43 41 38 35 33 42 38 41 39 37 37 37 39 38 35 34 34 32 30 27 26 24 22 24 35 34 32 29 27 21 17 17 15 11 9 8 9 8 13 14 12 11 12 10
52 49 47 45 42 38 36 43 39 43 42 39 37 40 40 39 38 35 33 31 31 27 25 26 29 35 38 37 32 21 23 21 18 16 6 12 3 5 7 10 12 13 11 12 10
59 56 53 51 48 45 41 40 44 41 46 45 43 41 43 42 39 38 35 35 32 27 31 27 29 34 41 40 34 22 28 25 22 14 14 13 14 10 7 8 9 10 12 12 12
68 63 60 57 55 51 47 44 45 47 51 48 47 43 45 44 42 42 39 36 36 35 31 32 32 33 39 42 39 38 29 27 26 14 14 15 13 11 9 6 7 8 9 14 12
76 72 67 63 61 57 54 51 48 56 52 51 47 45 44 45 46 44 43 43 39 38 40 41 33 34 35 44 47 39 29 23 22 17 12 21 21 12 11 12 8 8 7 9 9
83 78 75 71 67 64 61 59 58 46 53 48 49 47 46 46 49 47 46 44 40 36 35 34 38 37 35 39 42 47 30 19 17 16 17 24 21 14 17 15 13 10 6 4 8
89 87 80 78 74 71 68 65 58 55 45 51 45 50 47 48 51 52 50 44 41 40 41 38 36 33 36 36 35 37 37 22 17 22 19 17 23 22 21 15 12 10 7 3 1
92 92 87 82 79 77 74 67 64 61 54 50 51 46 48 49 53 54 52 48 45 42 39 35 35 34 32 41 37 39 28 27 22 17 18 18 22 15 22 16 14 10 5 9 5
83 94 91 87 83 83 79 72 70 67 56 54 51 51 47 49 50 54 52 50 48 44 44 42 38 37 43 48 41 37 35 31 20 19 18 14 20 26 26 21 13 13 17 15 7
61 77 88 90 87 86 83 78 76 70 62 59 54 56 52 50 49 53 56 51 48 47 48 44 41 41 43 40 41 35 33 32 27 27 26 23 17 25 23 20 18 13 16 15 10
37 48 69 84 88 88 86 84 82 75 70 64 59 55 55 54 53 51 55 52 52 52 51 48 47 47 41 51 47 44 37 34 29 23 24 26 19 24 23 21 19 16 15 16 15
29 36 46 67 87 92 89 85 83 76 74 68 64 59 56 54 53 52 54 56 55 53 54 53 47 49 46 44 47 47 46 40 33 33 27 27 24 26 26 20 19 21 21 21 22
28 35 41 52 73 87 90 87 86 81 77 71 66 62 57 57 56 52 50 57 56 57 57 57 55 51 48 39 43 47 46 41 38 33 31 24 26 28 29 25 24 25 25 24 26
23 31 39 46 62 75 85 85 83 77 78 76 72 66 62 59 57 58 49 53 58 59 60 58 58 55 53 53 47 44 44 45 42 38 34 31 28 28 24 24 26 28 29 28 28
19 26 35 41 51 64 72 80 81 84 83 79 77 70 69 63 64 60 58 59 60 62 61 61 60 58 56 53 52 53 50 48 47 44 43 36 34 33 28 22 20 22 22 22 24

GFSSW_500_spd_171.txt.gz
Wind_Speed
10 10 11 13 14 15 17 19 22 24 23 21 19 16 13 12 10 11 12 12 9 12 14 9 11 12 13 18 25 21 12 4 11 13 12 11 12 12 13 13 10 7 8 8 8
14 13 13 13 15 16 17 18 20 24 25 25 23 20 16 15 12 13 13 13 11 18 14 10 12 13 14 13 16 19 3 9 14 12 11 11 10 12 14 15 13 9 7 6 6
17 16 15 15 16 17 19 19 20 20 23 26 26 24 20 18 14 13 14 15 11 18 16 12 13 13 16 10 13 10 4 10 11 12 11 10 10 10 13 14 13 11 8 7 7
20 19 19 18 17 18 19 21 21 21 21 23 26 26 23 21 21 16 16 17 14 20 15 13 16 15 8 5 19 5 15 10 11 12 13 15 13 12 12 12 12 13 12 9 9
24 23 22 20 19 19 20 21 23 22 22 23 24 26 26 25 20 17 19 19 20 18 17 16 13 18 8 9 9 7 16 13 13 14 15 16 15 13 11 12 12 14 15 14 14
27 27 26 24 22 21 21 22 23 25 24 24 25 26 28 26 21 20 20 22 23 20 18 15 10 13 16 17 6 9 14 12 13 15 15 18 16 15 13 11 13 14 14 16 15
30 28 29 28 27 25 23 23 24 24 26 26 26 28 27 28 24 23 22 22 23 22 20 17 13 21 20 16 14 14 11 8 10 12 13 18 15 15 15 13 13 14 14 16 17
22 34 30 31 30 29 27 26 25 25 26 27 28 27 26 30 30 26 24 23 22 23 18 15 15 17 25 21 13 7 5 6 4 11 10 9 9 13 13 15 13 13 13 15 16
27 25 32 33 32 32 30 29 27 27 28 28 29 29 29 28 30 29 27 25 24 22 20 18 14 21 22 19 6 17 13 11 5 6 11 12 11 13 12 13 14 14 13 15 17
33 31 28 30 35 33 34 33 31 30 30 30 30 30 30 30 32 31 30 28 26 24 20 21 16 16 17 15 10 16 17 4 3 5 8 9 9 12 12 11 12 13 13 13 13
37 36 34 31 30 37 35 36 36 35 32 31 34 32 31 33 30 31 33 29 28 26 23 22 25 20 16 16 16 12 11 4 6 7 9 10 4 9 11 11 12 14 13 11 11
41 40 39 37 34 32 41 39 36 38 35 35 35 34 32 33 33 34 36 33 31 28 25 26 28 18 16 15 12 13 10 8 9 7 10 4 5 3 7 9 11 12 14 12 11
48 45 44 42 40 38 35 42 39 41 40 39 36 36 33 36 35 34 35 33 30 28 29 25 22 21 20 22 15 14 10 9 5 7 6 6 2 3 2 5 8 10 12 12 11
57 52 49 48 46 43 42 35 43 40 44 41 39 38 40 38 39 35 35 35 36 30 28 26 24 26 27 22 19 15 17 13 6 8 3 7 9 10 2 3 5 7 9 9 8
67 61 57 54 51 50 42 43 40 44 46 42 44 40 41 41 36 36 35 39 35 31 37 31 30 29 29 27 22 16 16 15 11 11 3 9 5 12 11 6 7 7 7 9 10
72 71 64 61 57 55 51 49 47 46 53 49 50 42 44 42 42 41 39 39 35 38 33 30 31 29 31 29 26 24 18 19 15 9 6 12 9 6 8 6 10 10 8 7 8
75 77 74 69 66 60 57 56 54 53 50 48 49 46 45 41 45 46 44 44 44 44 40 35 33 32 41 32 29 30 24 17 15 13 9 10 12 9 11 7 6 11 11 5 5
82 81 80 76 72 68 65 64 62 52 46 49 48 46 47 43 45 47 48 46 43 40 37 39 42 44 43 39 31 35 25 19 16 13 13 16 16 10 12 7 5 8 12 8 6
85 85 84 81 79 75 73 71 61 54 49 49 52 47 46 47 46 51 49 47 44 41 42 39 38 34 41 45 38 34 37 24 18 13 16 16 13 15 20 14 9 7 11 11 8
73 88 87 86 82 80 80 72 65 61 55 57 50 49 47 47 50 52 51 49 46 43 38 25 34 31 34 37 47 35 31 30 25 22 20 14 16 19 17 14 13 12 10 10 6
52 75 89 89 84 88 85 77 71 67 64 62 53 37 42 48 48 50 50 49 48 45 43 33 29 32 34 43 40 42 33 37 22 22 17 18 15 17 19 13 19 13 13 8 6
37 53 80 83 85 90 90 83 76 71 74 68 63 50 35 37 44 48 49 50 49 47 50 47 27 33 38 36 38 34 34 35 30 26 21 17 14 16 20 17 19 16 13 12 13
23 40 58 67 81 89 88 87 83 75 77 73 66 59 39 37 39 48 44 46 49 52 52 49 44 36 30 33 42 41 37 30 29 24 23 23 17 16 19 22 22 23 20 17 14
15 19 37 46 64 82 86 87 83 81 80 76 70 59 60 49 44 43 47 45 48 54 52 52 48 42 37 34 36 47 37 37 33 31 24 25 22 15 17 16 27 26 25 21 18
13 27 14 34 46 67 82 86 84 81 85 79 74 69 65 59 56 47 44 36 43 56 57 57 57 50 41 29 32 39 43 38 40 35 31 24 24 27 18 18 18 23 28 22 19
12 23 33 36 43 65 77 84 88 82 85 76 77 74 68 63 54 49 47 42 40 54 60 58 58 54 50 36 29 34 38 45 39 37 34 29 27 20 23 22 22 22 28 25 25
11 18 27 38 47 44 60 74 84 76 78 76 73 73 66 54 39 48 47 45 40 56 61 59 58 59 58 47 36 37 40 40 43 40 37 35 30 25 25 24 25 24 29 28 28

GFSSW_500_spd_177.txt.gz
Wind_Speed
11 12 15 18 19 20 19 21 23 23 23 20 17 16 13 14 13 17 14 10 8 7 12 22 23 16 17 12 12 14 9 2 9 8 9 10 11 10 10 6 1 3 5 5 6
14 14 14 16 18 21 23 24 25 25 25 24 21 18 16 14 13 14 16 12 8 11 17 23 9 2 5 21 14 2 7 6 5 6 4 7 7 11 9 8 6 4 1 4 5
18 17 16 16 18 19 21 24 26 28 28 27 25 22 18 16 15 17 17 14 10 13 21 21 18 18 17 24 17 10 9 4 2 4 4 3 9 8 10 9 8 5 4 3 1
22 21 21 19 19 20 21 23 25 28 29 29 28 25 22 20 19 18 18 16 16 17 26 24 18 19 18 8 7 10 9 1 2 3 3 3 7 9 9 8 8 7 5 3 3
24 25 24 23 22 22 22 23 24 25 27 30 30 28 25 21 17 19 21 19 19 19 22 18 12 15 18 3 8 5 2 2 3 3 1 3 7 8 8 9 9 10 10 9 10
24 25 27 27 26 25 24 24 26 26 27 27 29 30 26 19 25 23 22 22 20 20 19 19 25 21 17 8 18 1 5 3 3 4 3 5 7 8 7 9 11 12 13 13 12
23 21 29 28 30 28 27 26 26 27 28 28 29 28 26 20 26 22 24 28 22 23 20 23 22 18 15 11 8 4 5 5 4 3 8 7 7 9 8 10 12 14 14 14 13
27 26 25 26 31 32 30 29 29 29 30 30 29 29 22 27 27 22 23 24 22 22 20 20 18 9 22 16 12 12 5 7 9 4 6 6 9 9 8 10 9 11 15 17 18
29 29 30 28 26 34 34 33 33 31 32 32 31 28 21 31 21 25 26 26 26 22 21 18 17 12 19 16 11 7 7 4 7 12 10 6 12 6 7 8 9 13 15 18 19
35 33 32 32 30 28 34 35 38 37 35 34 33 27 28 30 30 31 27 29 28 27 25 20 18 13 20 11 13 16 24 14 13 10 6 13 8 6 4 6 10 13 14 16 15
43 40 38 35 34 33 33 36 40 42 36 33 33 30 32 32 30 31 32 30 31 33 28 23 22 16 21 15 18 8 28 20 20 7 10 12 6 7 6 2 8 11 12 13 12
51 48 45 42 39 37 38 39 36 42 38 36 35 31 33 32 32 33 37 36 35 31 28 30 22 18 15 6 7 4 21 22 17 10 8 4 11 13 9 4 4 9 12 13 13
57 56 53 50 46 43 44 44 36 35 41 40 37 34 34 35 34 33 36 35 33 32 32 27 19 23 17 14 13 7 17 22 15 10 3 4 8 12 11 7 4 7 9 15 13
63 62 61 57 53 51 47 42 37 39 40 37 41 35 39 34 37 36 34 35 36 31 30 26 24 29 21 23 5 11 16 10 9 8 5 5 11 8 9 9 3 7 9 11 13
64 67 66 64 61 58 53 47 46 44 44 35 41 37 35 38 26 34 35 38 37 30 37 26 30 34 23 17 12 8 3 12 10 10 8 9 15 9 8 12 5 6 11 11 15
68 67 68 71 66 65 58 54 53 51 47 31 38 43 43 41 36 35 38 38 35 37 36 30 30 34 26 19 17 10 10 15 14 12 13 16 12 16 14 3 6 3 10 12 12
66 70 71 70 69 70 67 63 60 59 46 34 35 42 43 40 38 40 40 43 42 43 43 36 37 37 29 23 27 24 21 22 22 15 12 12 18 17 17 13 4 4 6 10 11
60 65 69 71 73 74 73 71 69 55 48 38 32 35 40 42 40 40 42 42 44 43 37 38 41 42 38 31 23 27 27 17 9 15 10 7 10 15 18 18 8 5 7 5 7
56 59 60 67 72 77 79 80 68 60 51 45 39 39 34 38 41 44 43 42 43 43 42 40 37 39 44 34 29 27 34 20 13 15 7 7 14 16 18 15 10 7 9 8 4
47 54 54 60 63 78 86 83 73 66 59 54 42 35 25 27 39 47 46 44 43 43 39 39 38 37 37 34 34 35 35 30 30 26 22 11 18 19 17 17 12 12 9 9 8
36 39 41 50 58 75 88 87 81 74 65 62 58 49 43 32 23 41 47 43 43 42 41 39 39 36 37 42 38 40 42 38 34 33 26 18 14 14 21 16 13 14 14 10 12
27 27 32 35 49 64 83 89 87 81 71 70 68 61 55 42 35 33 46 47 43 43 48 43 45 38 40 36 35 35 43 38 36 35 26 23 23 27 23 19 19 19 20 20 13
23 23 25 30 42 51 70 84 88 85 75 69 66 65 60 51 45 37 32 45 43 44 49 44 48 40 30 31 38 42 35 40 40 36 34 23 10 5 21 25 23 26 13 13 14
17 17 19 21 28 41 60 83 90 89 80 75 69 69 64 56 49 42 38 37 41 46 44 47 47 48 43 37 29 40 32 41 38 41 33 25 16 10 11 26 25 20 13 14 18
13 14 15 7 25 33 45 66 86 91 80 80 73 75 66 62 60 52 44 37 37 41 40 50 57 49 42 35 27 30 31 29 46 42 40 29 19 17 21 24 25 24 21 19 17
10 14 18 5 13 29 33 50 71 85 82 82 73 76 74 70 66 57 53 46 45 42 44 44 57 51 45 40 37 35 32 29 28 43 41 34 25 16 21 25 19 26 27 22 21
10 11 14 15 12 14 19 26 50 70 82 87 77 77 76 75 71 64 58 52 47 45 46 43 51 57 53 44 41 34 40 32 26 37 44 40 27 22 20 18 26 22 20 22 27

GFSSW_500_spd_183.txt.gz
Wind_Speed
12 15 17 19 20 21 21 22 25 24 22 20 18 17 17 16 16 18 14 12 11 12 16 10 6 6 3 2 2 5 10 16 17 17 13 12 10 11 9 5 2 5 6 6 9
15 15 17 20 21 22 22 23 26 27 25 23 22 20 19 17 17 20 18 14 14 16 13 10 6 5 3 5 4 4 10 16 19 14 10 6 8 11 9 7 5 3 5 6 7
19 18 18 19 21 23 24 24 25 28 29 26 25 22 20 19 19 22 19 15 17 21 17 12 8 5 8 7 4 9 14 15 15 13 8 9 11 10 10 9 7 3 4 6 9
23 23 22 21 22 23 24 26 26 28 30 30 28 25 22 21 21 22 22 17 20 24 18 17 11 9 10 8 11 13 14 13 14 13 10 8 9 8 9 8 8 7 4 7 8
23 25 26 26 24 24 25 25 26 28 30 31 31 28 26 22 20 24 24 20 24 25 21 20 13 12 9 7 13 13 12 13 12 13 12 8 10 8 9 8 9 8 7 9 10
22 22 27 28 29 28 27 27 27 28 29 32 32 32 28 21 27 25 25 23 27 29 26 20 19 16 10 7 10 12 7 6 11 11 15 12 13 10 10 9 12 10 11 12 11
26 27 26 25 31 31 31 30 30 30 30 30 32 33 30 25 32 28 26 26 29 35 31 25 21 14 13 8 8 12 9 6 9 10 16 13 13 12 10 10 11 12 12 14 16
30 30 29 29 28 29 35 36 33 33 32 32 30 31 28 35 34 24 28 28 31 34 33 30 27 17 9 7 9 11 10 9 6 3 10 12 15 14 8 8 12 13 13 14 15
37 36 34 32 31 32 32 37 36 35 35 34 32 30 28 36 35 37 31 31 34 34 34 31 22 21 9 10 11 6 7 10 8 5 7 11 16 15 11 6 11 16 17 17 18
44 42 41 38 35 35 36 35 35 38 36 34 32 31 31 35 35 35 30 35 36 38 38 33 25 21 11 8 7 8 8 12 12 12 12 13 14 16 13 9 10 15 17 19 20
51 50 48 45 42 40 39 39 37 35 38 36 31 30 31 33 32 36 36 39 40 44 41 36 28 17 9 13 14 16 13 13 11 13 16 15 13 15 14 10 7 11 16 17 17
56 56 56 53 50 47 45 42 40 36 34 39 37 33 34 38 35 37 41 44 43 43 42 38 28 17 19 15 9 14 19 15 16 14 15 15 13 12 12 11 8 7 12 16 18
57 58 60 60 58 54 51 48 44 40 39 36 39 36 38 41 37 40 42 46 39 38 41 36 23 25 22 20 13 17 23 24 19 14 16 19 15 11 6 7 9 7 10 12 15
56 56 58 61 63 61 58 55 50 46 43 34 35 38 42 41 39 41 41 45 44 35 40 41 32 31 26 22 17 23 29 24 18 19 13 15 16 14 9 5 5 9 8 11 16
54 57 58 56 63 63 62 60 56 52 48 39 40 39 43 43 34 40 38 42 43 37 43 38 35 32 24 23 26 27 24 19 14 16 19 17 18 18 19 16 3 8 6 12 19
50 57 58 61 61 63 63 63 62 58 56 42 41 40 43 46 41 42 43 42 43 42 42 39 37 36 20 24 36 30 29 27 25 18 18 14 9 17 14 13 6 7 8 20 24
55 53 56 62 66 59 61 64 63 64 55 50 45 43 41 48 46 46 46 47 49 50 48 41 43 42 34 35 49 39 34 32 25 18 14 9 9 13 14 6 11 8 13 18 22
60 60 61 62 63 62 61 65 72 66 61 54 52 45 43 45 48 48 49 46 48 49 48 46 46 47 43 40 35 34 37 31 24 17 15 14 16 4 7 4 5 6 12 12 18
44 52 58 60 58 58 62 67 71 70 66 59 54 50 46 48 50 53 52 47 46 49 48 46 45 47 43 40 37 32 42 20 23 22 17 12 12 14 4 6 6 9 12 13 13
31 41 45 49 52 52 56 63 67 69 68 61 63 56 49 52 52 59 55 50 47 48 45 44 46 47 45 47 43 40 25 25 31 25 19 21 18 10 11 7 7 16 12 11 12
24 34 35 37 42 50 55 59 62 61 65 65 63 63 56 56 55 60 60 53 48 46 48 47 48 48 48 55 50 44 39 34 30 26 25 29 23 23 18 10 8 8 11 12 8
21 29 31 33 36 41 49 54 64 64 69 70 67 66 59 62 57 57 60 57 54 51 50 50 50 52 51 52 51 46 39 34 36 33 31 31 30 23 22 20 14 6 5 5 10
18 23 26 30 34 38 42 48 56 62 69 69 71 70 68 63 64 56 58 59 57 54 53 51 55 55 56 58 58 54 46 42 40 38 38 37 28 19 23 25 22 16 11 2 3
19 20 21 26 31 34 36 41 49 61 68 69 73 79 71 67 67 62 57 59 59 58 56 56 57 59 60 55 58 59 52 47 45 47 43 44 30 26 26 25 26 24 20 9 3
15 17 20 23 26 30 34 37 43 56 71 73 73 78 76 72 72 62 59 59 62 61 59 57 60 58 58 57 61 59 54 51 51 48 50 42 35 25 20 19 24 24 23 17 8
16 15 17 20 21 24 29 34 41 54 70 72 76 80 83 77 75 65 63 61 62 65 60 61 59 58 58 61 58 61 60 57 55 53 50 43 37 31 29 25 26 28 23 16 12
17 15 15 17 20 23 21 25 36 50 63 73 74 81 87 79 75 69 66 63 62 65 65 64 61 61 60 58 58 64 61 60 55 51 50 50 38 32 32 28 28 25 17 15 14

GFSSW_500_spd_186.txt.gz
Wind_Speed
12 14 16 18 19 20 20 21 24 26 23 21 20 20 19 19 19 17 13 11 9 9 13 7 6 4 2 3 8 10 10 9 11 15 14 14 12 11 10 7 6 7 9 6 15
15 15 16 19 20 21 22 22 24 27 27 24 22 21 21 20 21 19 15 12 9 10 11 8 7 1 6 6 4 7 9 9 10 14 15 11 10 9 8 7 5 6 8 8 10
20 19 18 18 21 23 24 24 23 26 28 26 24 22 21 22 21 21 18 14 11 13 11 9 7 5 7 5 7 11 11 11 12 12 11 9 8 8 6 6 5 6 7 13 11
23 24 23 22 21 23 25 26 26 26 29 29 27 25 23 23 25 23 23 19 14 18 15 14 6 9 7 5 10 12 13 13 13 11 10 8 9 7 5 4 5 5 7 9 16
21 25 26 27 26 25 25 26 28 28 28 31 31 29 27 25 23 25 25 22 18 21 17 18 11 9 7 6 7 13 15 14 14 12 9 7 9 8 4 4 4 5 7 7 12
24 25 24 28 30 30 29 28 28 28 30 31 34 33 31 22 26 25 28 26 21 25 23 22 17 13 6 5 6 14 11 11 10 13 11 9 11 9 7 6 7 9 7 7 13
28 28 28 28 27 33 34 33 30 29 30 31 33 36 34 26 31 25 27 27 24 28 28 24 23 16 12 6 5 5 11 9 9 8 10 12 11 10 8 6 6 8 10 11 16
35 34 32 32 32 31 32 36 35 32 32 32 32 34 33 36 32 27 29 31 29 31 32 28 25 20 13 6 8 6 5 7 8 6 6 11 11 8 9 8 6 7 10 13 16
42 40 39 37 35 35 35 33 36 36 35 34 32 32 33 39 37 36 30 31 33 36 37 33 29 21 14 9 4 10 8 8 7 3 4 9 12 9 10 9 7 8 11 14 16
49 48 46 44 41 39 39 38 35 36 39 37 34 34 31 35 38 40 33 32 33 38 42 35 29 26 20 10 9 8 8 8 8 6 7 10 13 12 11 9 11 9 13 17 19
55 55 53 52 48 45 44 42 40 39 35 39 36 35 33 34 36 41 38 36 38 40 41 34 30 25 19 11 12 14 12 13 9 10 12 13 14 13 13 11 10 8 14 18 21
56 58 60 58 56 53 50 48 44 42 40 38 41 37 37 39 38 41 42 43 44 40 39 38 28 22 24 21 13 10 16 24 16 16 14 15 15 14 14 12 12 8 11 15 18
53 55 58 62 62 60 57 54 50 47 45 41 37 38 40 43 39 41 43 46 46 40 42 36 24 26 25 22 13 10 16 19 19 17 16 14 15 15 14 12 12 11 10 12 14
46 52 55 58 62 65 63 60 57 53 50 42 40 37 43 44 43 42 45 48 50 44 42 42 34 32 27 20 17 19 19 23 20 20 16 12 12 11 13 12 11 12 11 12 15
42 43 50 53 58 59 64 64 62 58 55 47 46 43 42 48 39 43 42 47 49 48 47 43 37 32 31 19 17 8 18 24 23 22 17 14 14 16 12 10 11 11 11 10 15
45 46 41 47 53 56 60 64 65 62 61 51 50 48 45 48 46 45 46 47 47 51 46 42 36 39 30 22 19 15 24 28 29 27 21 17 15 13 12 10 10 9 8 13 18
53 52 59 62 54 52 59 61 65 69 59 57 52 49 46 48 51 49 50 51 52 54 50 43 41 41 37 32 30 29 31 32 29 30 18 17 17 12 7 8 12 8 11 22 21
51 65 62 58 59 54 56 62 72 72 64 57 59 52 47 50 51 54 52 51 50 49 50 48 47 45 43 35 43 35 38 34 29 29 22 21 19 10 4 2 15 16 17 22 21
52 56 45 47 57 59 56 61 67 71 67 62 58 59 51 51 50 56 56 51 48 52 50 49 45 42 39 35 46 44 44 31 30 27 27 27 22 15 7 6 14 17 15 19 19
45 43 30 32 38 51 59 58 63 66 67 64 61 58 61 52 51 53 56 54 50 50 49 50 48 43 44 43 43 40 36 35 36 32 33 32 26 18 7 4 15 16 17 17 15
38 34 24 23 28 36 52 58 60 64 62 66 64 65 58 59 54 55 56 57 55 51 53 52 51 49 48 51 47 51 50 41 36 33 34 34 29 18 14 9 9 14 15 13 12
33 30 23 21 24 30 41 51 57 61 62 63 65 65 65 62 58 55 54 59 59 56 56 54 53 55 51 49 47 48 38 47 40 38 40 36 31 23 20 18 9 13 9 14 14
33 27 23 20 24 28 34 42 49 56 60 64 67 70 68 58 61 59 54 59 61 60 58 58 59 58 60 55 57 52 51 49 36 39 42 41 32 27 26 21 18 12 12 8 14
29 27 23 21 21 27 33 39 46 51 60 61 67 71 73 72 65 62 57 58 64 63 62 61 62 61 61 57 55 55 56 53 46 49 41 42 34 31 29 26 22 19 16 9 5
26 26 24 23 19 23 30 37 44 48 55 59 66 72 74 76 69 64 60 60 66 67 65 63 62 60 59 59 58 55 55 55 54 46 43 38 40 32 29 31 28 26 25 23 17
23 23 23 23 20 20 26 31 40 46 50 54 63 74 77 77 75 67 66 64 66 69 67 65 61 59 60 62 60 59 57 59 55 51 45 41 41 34 33 34 32 30 30 30 21
22 23 21 22 19 18 20 26 33 40 47 51 61 73 77 79 82 73 70 67 65 68 69 65 63 62 63 63 63 68 63 61 60 54 47 41 35 37 33 36 33 32 31 28 20

GFSSW_500_spd_189.txt.gz
Wind_Speed
11 12 14 16 18 19 19 20 25 26 24 22 22 21 20 19 18 15 12 9 11 13 10 10 5 6 3 6 4 4 4 9 11 12 12 11 10 10 11 12 12 12 14 11 14
15 14 14 17 19 20 21 21 23 28 28 26 24 24 23 21 21 18 14 12 10 14 13 10 9 3 6 6 4 4 5 9 13 13 12 10 9 8 8 8 9 11 12 12 11
20 19 18 18 20 22 22 23 24 26 29 29 27 26 26 24 23 22 18 15 11 12 13 13 10 2 7 5 5 6 8 10 12 12 9 7 6 7 7 7 7 8 10 15 14
18 22 23 22 21 22 25 25 26 26 28 31 29 27 27 27 27 24 22 19 13 14 15 14 9 9 7 4 5 6 7 9 10 10 9 5 5 5 4 5 5 6 9 11 17
21 20 22 25 26 25 25 27 27 28 28 30 32 30 28 27 27 26 26 23 17 15 18 15 11 12 9 4 4 9 9 9 8 8 7 4 4 4 3 2 4 6 8 10 12
24 25 24 24 26 30 30 28 28 29 30 31 33 34 32 27 28 25 26 25 21 18 20 20 16 10 10 5 5 10 11 10 7 5 5 4 2 3 3 5 4 5 8 11 14
31 29 29 29 28 28 31 32 30 30 31 33 33 36 36 28 31 28 25 27 24 21 21 22 21 15 12 7 3 4 10 12 7 4 4 4 4 3 2 5 4 3 7 13 18
38 37 35 33 32 32 31 30 34 34 33 33 34 35 35 37 34 30 28 30 30 25 26 25 25 21 13 9 5 5 5 9 9 6 4 6 6 4 3 6 6 5 5 14 19
45 44 43 40 38 36 36 34 33 34 37 35 35 35 34 40 39 36 29 29 33 31 31 30 30 26 17 12 5 6 9 9 7 6 4 5 6 7 4 6 7 6 6 13 18
51 51 50 48 46 43 41 40 38 36 35 39 37 36 33 38 40 39 34 31 33 33 35 32 31 29 21 11 9 10 11 12 9 8 6 6 7 9 7 5 7 8 9 13 18
49 53 55 55 53 51 49 45 43 42 38 37 38 37 36 38 42 44 41 35 35 38 39 35 31 29 20 15 14 15 14 14 12 12 9 9 9 10 11 8 7 10 11 13 17
45 48 51 56 58 57 55 53 50 47 44 41 38 39 39 41 41 45 46 43 41 39 38 38 29 23 26 23 18 15 16 16 16 16 12 13 14 12 11 10 10 12 12 14 17
40 41 46 52 55 58 59 58 56 53 49 46 42 36 42 44 43 42 46 48 46 43 40 39 22 26 28 24 20 12 16 20 17 16 13 17 17 15 13 11 10 10 13 12 13
34 36 38 43 50 53 56 59 59 60 56 48 48 43 41 45 45 44 45 48 50 47 42 40 36 34 28 26 20 15 12 13 20 17 18 19 15 14 14 13 12 11 12 12 12
36 32 31 30 38 49 53 56 59 62 58 54 53 48 44 46 44 46 46 48 48 49 49 44 39 36 33 25 19 12 18 18 24 22 21 17 13 13 15 13 13 13 14 14 13
42 38 31 36 39 34 45 52 55 59 64 53 55 53 49 45 48 48 49 49 48 49 51 45 38 38 29 28 25 20 21 14 24 25 21 19 16 13 12 13 13 14 14 18 17
49 43 37 36 38 41 45 49 55 66 60 60 55 54 52 50 49 51 53 52 54 54 55 52 46 42 37 36 35 31 26 21 25 29 23 21 18 13 10 13 15 14 15 19 22
45 41 39 41 45 44 53 62 64 68 60 57 61 55 52 53 52 52 55 54 54 51 49 53 52 46 44 40 34 33 30 30 31 30 24 24 20 13 9 11 13 12 17 23 24
44 41 40 44 46 52 50 61 68 69 68 60 56 59 54 53 54 54 54 55 52 53 54 52 51 42 38 38 40 41 40 29 30 34 28 27 22 15 8 15 18 13 22 25 25
40 38 38 39 43 46 39 49 63 67 66 63 60 57 60 55 54 55 54 57 55 53 51 50 51 45 40 42 45 44 34 37 36 40 34 31 24 17 11 18 18 16 24 25 24
37 36 34 35 38 32 30 36 55 62 62 60 63 64 56 61 56 55 57 57 58 55 54 54 52 49 50 50 50 48 46 44 38 41 35 32 24 18 14 20 18 18 22 24 18
42 32 29 29 28 25 25 30 45 55 59 60 61 65 66 57 60 55 56 58 59 58 58 54 55 55 52 46 48 45 44 43 44 43 40 36 28 24 20 17 19 20 21 21 20
36 25 21 25 22 20 24 29 37 47 54 58 61 66 65 63 64 58 57 58 60 60 59 58 61 59 56 55 55 53 47 47 43 39 42 38 32 29 25 20 16 19 20 21 18
26 18 18 20 19 18 21 27 33 41 50 53 59 65 69 70 65 63 60 59 60 62 62 62 62 61 60 51 52 56 54 48 47 46 44 43 34 34 30 24 17 17 21 18 17
21 16 17 18 19 18 19 25 33 38 44 49 54 64 69 70 71 65 65 60 62 63 65 65 62 59 58 60 58 53 54 50 54 50 50 41 38 39 36 32 21 17 18 20 18
23 17 19 19 18 18 20 23 31 38 41 48 52 60 68 71 75 68 67 63 63 63 65 65 63 61 61 61 61 61 56 55 56 45 48 41 45 41 38 32 30 20 19 18 18
22 17 20 21 20 18 18 22 27 33 41 46 52 57 63 71 75 72 70 67 65 64 65 66 66 64 63 61 61 67 62 59 56 55 49 45 44 43 43 39 32 27 25 23 24

GFSSW_500_spd_195.txt.gz
Wind_Speed
14 13 13 15 15 16 20 21 19 21 24 25 26 25 21 18 17 14 12 10 10 11 9 11 6 4 1 2 5 10 13 3 3 2 5 11 11 12 10 9 8 5 6 6 8
16 17 16 15 17 18 20 22 22 21 24 27 27 25 23 20 18 17 14 11 10 14 10 11 6 3 3 2 5 5 0 4 6 12 12 11 8 9 10 10 9 8 6 8 11
14 18 19 19 18 19 22 23 24 24 24 27 29 28 27 24 20 22 18 14 13 15 12 12 6 2 3 3 1 2 5 5 3 5 3 4 3 3 4 8 10 11 11 10 11
18 18 17 21 22 21 22 25 26 26 27 28 30 29 27 26 25 23 21 18 15 14 15 13 8 5 8 2 1 4 8 6 4 6 4 4 2 2 5 6 6 10 13 12 12
22 21 22 22 21 25 25 24 27 29 29 30 32 32 32 31 29 25 23 21 18 15 14 14 11 8 2 2 1 3 7 6 7 8 5 3 1 2 4 6 8 9 11 12 12
30 28 26 25 26 25 25 28 27 30 31 33 34 35 34 32 35 26 27 25 22 19 15 17 17 13 8 7 8 11 4 6 8 6 5 2 1 3 4 7 9 11 11 12 15
36 35 34 32 30 29 28 27 31 31 31 34 35 38 40 33 34 29 28 28 26 23 20 19 20 19 14 6 10 7 4 4 6 5 4 3 5 4 6 6 8 10 12 13 15
43 42 40 39 38 36 33 32 31 32 35 34 36 39 39 40 38 33 31 31 29 28 24 21 21 20 15 13 9 8 7 5 14 7 5 4 7 7 7 7 7 9 10 15 16
44 45 46 46 45 43 41 39 36 35 34 38 37 39 36 40 39 39 36 30 31 31 28 25 24 22 20 14 5 6 8 16 4 10 7 6 14 8 8 9 7 7 10 13 17
47 47 47 49 51 51 48 47 44 41 39 37 40 41 38 38 42 45 40 34 32 32 34 29 26 25 25 16 10 13 10 9 11 21 9 7 9 7 9 9 8 6 8 11 15
40 46 46 46 50 53 55 53 51 50 45 43 44 39 44 40 37 41 45 41 37 36 37 32 31 31 28 22 18 21 17 13 13 14 13 8 8 9 9 8 8 5 7 11 16
24 29 34 37 40 47 50 55 57 56 53 49 46 42 44 41 41 42 45 47 45 40 34 37 37 28 29 23 22 25 7 17 11 22 18 9 13 16 6 8 9 7 6 11 15
22 23 24 23 25 34 40 47 52 59 59 55 52 46 44 43 43 44 45 45 49 43 38 40 32 28 29 27 24 21 17 13 12 17 17 11 10 13 12 10 8 7 6 10 14
28 28 29 30 30 31 30 37 44 49 61 57 55 53 50 44 45 45 45 45 49 47 41 40 35 31 30 30 26 22 19 18 17 16 11 23 11 9 19 11 10 5 7 10 13
33 36 36 36 34 34 34 31 35 41 48 53 62 58 53 50 41 47 46 47 48 48 48 43 40 39 33 31 28 27 19 20 18 15 15 18 13 7 25 12 12 10 9 11 14
37 39 39 39 39 37 35 36 32 37 47 43 56 56 55 52 50 50 48 50 47 48 51 49 41 40 30 21 25 26 22 20 20 15 19 17 19 11 18 17 15 14 12 11 14
38 41 42 42 43 41 37 36 36 37 34 35 43 55 54 55 54 54 49 51 54 53 53 52 49 42 37 34 31 31 27 26 20 20 18 18 21 21 23 15 17 16 16 14 14
25 29 34 34 38 41 39 37 37 37 28 36 48 51 47 50 57 58 56 52 52 53 48 50 54 50 45 41 36 35 33 29 22 15 15 27 22 24 11 14 16 17 18 16 16
32 33 39 41 45 42 41 40 38 33 37 49 47 44 46 41 54 58 57 54 51 53 52 39 51 47 48 41 40 35 41 32 24 22 17 35 12 16 16 18 16 18 19 19 20
37 40 41 46 46 39 40 39 42 48 45 46 41 39 45 46 46 56 61 58 52 51 50 44 33 40 47 47 45 39 33 36 32 29 31 23 22 19 16 14 17 22 21 21 25
40 43 42 43 34 32 37 36 39 46 42 46 47 44 45 42 52 52 51 50 52 51 52 53 33 33 36 54 52 47 40 37 29 27 27 22 8 17 16 14 26 23 22 24 27
40 39 39 35 28 28 34 30 39 37 40 42 47 48 48 52 57 57 46 46 64 62 61 60 40 37 43 44 49 47 43 37 36 32 27 25 18 18 24 29 21 21 19 21 31
38 37 35 28 25 16 22 34 32 32 35 39 42 45 49 52 57 57 52 68 70 64 63 59 61 36 34 41 48 53 45 40 35 30 30 30 15 15 21 31 24 22 17 24 31
36 34 31 23 23 18 22 20 23 26 30 35 36 40 46 54 57 64 63 69 67 68 65 61 63 51 45 41 44 52 45 42 37 38 30 30 25 25 13 22 23 19 20 24 27
33 32 27 23 22 20 18 21 19 20 25 27 27 32 38 48 58 68 67 65 65 64 63 65 60 58 54 36 34 41 52 42 44 38 36 34 37 23 16 23 21 18 22 24 25
31 32 23 21 18 20 20 20 22 23 25 27 28 33 40 54 53 53 63 66 61 70 61 69 63 59 59 46 37 34 42 50 42 42 38 31 26 23 19 22 21 20 23 27 28
30 29 20 16 12 16 22 22 24 27 29 31 34 35 38 53 50 61 73 78 73 72 66 68 64 62 63 57 35 39 43 46 47 42 39 40 31 31 29 16 27 24 23 24 27